QPF
0.00 0.00 0.00 0.00 0.00 0.00 0.00 0.00 0.00 0.00 0.00 0.00 0.00 0.00 0.00 0.00 0.00 0.00 0.00 0.00 0.00 0.00 0.00 0.00 0.00 0.00 0.00 0.01 0.00 0.00 0.01 0.02 0.04 0.01 0.00 0.00 0.00 0.00 0.00 0.00 0.00 0.00 0.00
0.00 0.00 0.00 0.00 0.00 0.00 0.00 0.00 0.00 0.00 0.00 0.00 0.00 0.00 0.00 0.00 0.00 0.00 0.00 0.00 0.00 0.00 0.01 0.01 0.01 0.01 0.01 0.01 0.01 0.00 0.00 0.01 0.04 0.03 0.01 0.00 0.00 0.00 0.00 0.00 0.00 0.00 0.00
0.00 0.00 0.00 0.00 0.00 0.00 0.00 0.00 0.00 0.00 0.00 0.00 0.00 0.00 0.00 0.00 0.00 0.00 0.00 0.00 0.01 0.02 0.02 0.02 0.02 0.02 0.02 0.01 0.00 0.00 0.01 0.02 0.04 0.04 0.01 0.00 0.00 0.00 0.00 0.00 0.00 0.00 0.00
0.00 0.00 0.00 0.00 0.00 0.00 0.00 0.00 0.00 0.00 0.00 0.00 0.00 0.00 0.00 0.00 0.00 0.00 0.00 0.02 0.05 0.05 0.04 0.03 0.03 0.02 0.01 0.01 0.01 0.02 0.04 0.06 0.05 0.04 0.02 0.01 0.00 0.00 0.00 0.00 0.00 0.00 0.00
0.00 0.00 0.00 0.00 0.00 0.00 0.00 0.00 0.00 0.00 0.00 0.00 0.00 0.00 0.00 0.00 0.00 0.00 0.04 0.11 0.13 0.08 0.03 0.02 0.01 0.01 0.02 0.03 0.05 0.06 0.09 0.10 0.06 0.03 0.02 0.01 0.00 0.00 0.00 0.00 0.00 0.00 0.00
0.00 0.00 0.00 0.00 0.00 0.00 0.00 0.00 0.00 0.00 0.00 0.00 0.00 0.00 0.00 0.00 0.00 0.01 0.06 0.12 0.10 0.04 0.02 0.01 0.01 0.01 0.01 0.01 0.02 0.05 0.08 0.08 0.06 0.05 0.03 0.02 0.01 0.00 0.00 0.00 0.01 0.01 0.00
0.00 0.00 0.00 0.00 0.00 0.00 0.00 0.00 0.00 0.00 0.00 0.00 0.00 0.00 0.00 0.00 0.00 0.01 0.06 0.09 0.05 0.01 0.00 0.00 0.00 0.00 0.00 0.01 0.03 0.05 0.03 0.02 0.04 0.06 0.05 0.02 0.01 0.00 0.01 0.01 0.01 0.01 0.01
0.00 0.00 0.00 0.00 0.00 0.00 0.00 0.00 0.00 0.00 0.00 0.00 0.00 0.00 0.00 0.00 0.00 0.01 0.06 0.06 0.02 0.00 0.00 0.00 0.00 0.00 0.00 0.04 0.12 0.05 0.01 0.01 0.02 0.05 0.06 0.05 0.04 0.04 0.04 0.03 0.02 0.01 0.00
0.00 0.00 0.00 0.00 0.00 0.00 0.00 0.00 0.00 0.00 0.00 0.00 0.00 0.00 0.00 0.00 0.00 0.01 0.05 0.05 0.01 0.00 0.00 0.00 0.00 0.00 0.02 0.07 0.06 0.01 0.01 0.02 0.02 0.03 0.04 0.04 0.05 0.04 0.05 0.07 0.04 0.02 0.01
0.00 0.00 0.00 0.00 0.00 0.00 0.00 0.00 0.00 0.00 0.00 0.00 0.00 0.00 0.00 0.00 0.00 0.01 0.05 0.05 0.03 0.01 0.00 0.00 0.00 0.01 0.05 0.04 0.02 0.01 0.03 0.05 0.02 0.01 0.01 0.01 0.01 0.01 0.02 0.03 0.02 0.02 0.01
0.00 0.00 0.00 0.00 0.00 0.00 0.00 0.00 0.00 0.00 0.00 0.00 0.00 0.00 0.00 0.00 0.00 0.01 0.03 0.04 0.05 0.02 0.00 0.00 0.01 0.03 0.04 0.02 0.01 0.02 0.06 0.05 0.02 0.01 0.01 0.01 0.01 0.01 0.01 0.01 0.02 0.02 0.02
0.00 0.00 0.00 0.00 0.00 0.00 0.00 0.01 0.00 0.00 0.00 0.00 0.00 0.00 0.00 0.00 0.00 0.00 0.02 0.03 0.03 0.01 0.01 0.01 0.02 0.03 0.02 0.01 0.01 0.02 0.02 0.02 0.02 0.02 0.02 0.02 0.02 0.02 0.01 0.02 0.02 0.02 0.03
0.00 0.00 0.00 0.00 0.00 0.01 0.01 0.01 0.01 0.00 0.00 0.00 0.00 0.00 0.00 0.00 0.00 0.00 0.01 0.01 0.01 0.01 0.01 0.01 0.01 0.01 0.01 0.00 0.01 0.01 0.00 0.01 0.02 0.03 0.03 0.03 0.03 0.03 0.03 0.03 0.03 0.03 0.04
0.00 0.00 0.00 0.00 0.01 0.01 0.02 0.02 0.01 0.01 0.00 0.00 0.00 0.00 0.00 0.00 0.00 0.00 0.01 0.01 0.01 0.01 0.01 0.00 0.00 0.00 0.00 0.00 0.00 0.00 0.00 0.01 0.03 0.04 0.05 0.05 0.04 0.03 0.03 0.04 0.05 0.05 0.06
0.00 0.00 0.00 0.01 0.01 0.02 0.02 0.02 0.02 0.01 0.00 0.00 0.00 0.00 0.00 0.00 0.00 0.01 0.01 0.01 0.01 0.01 0.01 0.00 0.00 0.00 0.00 0.00 0.00 0.00 0.00 0.00 0.01 0.02 0.04 0.05 0.04 0.04 0.04 0.04 0.05 0.07 0.07
0.00 0.00 0.01 0.01 0.02 0.02 0.02 0.02 0.02 0.01 0.00 0.00 0.00 0.00 0.00 0.00 0.00 0.00 0.01 0.01 0.01 0.01 0.00 0.00 0.00 0.00 0.01 0.01 0.01 0.01 0.00 0.00 0.01 0.02 0.03 0.04 0.05 0.05 0.05 0.04 0.05 0.07 0.09
0.00 0.00 0.01 0.01 0.02 0.03 0.03 0.03 0.02 0.01 0.00 0.00 0.00 0.00 0.00 0.00 0.00 0.00 0.00 0.00 0.00 0.00 0.00 0.00 0.00 0.01 0.01 0.01 0.01 0.01 0.01 0.00 0.00 0.01 0.02 0.04 0.04 0.05 0.05 0.05 0.05 0.06 0.08
0.00 0.00 0.01 0.02 0.02 0.03 0.03 0.03 0.02 0.01 0.01 0.00 0.00 0.00 0.00 0.00 0.00 0.00 0.00 0.00 0.00 0.00 0.00 0.00 0.01 0.01 0.02 0.02 0.02 0.02 0.01 0.01 0.00 0.00 0.01 0.02 0.03 0.04 0.05 0.05 0.05 0.06 0.07
0.00 0.01 0.01 0.01 0.02 0.03 0.03 0.03 0.02 0.01 0.01 0.00 0.00 0.00 0.00 0.00 0.00 0.00 0.00 0.00 0.00 0.00 0.00 0.00 0.01 0.01 0.02 0.02 0.02 0.02 0.01 0.01 0.00 0.00 0.01 0.01 0.02 0.03 0.03 0.04 0.04 0.05 0.05
0.00 0.01 0.01 0.01 0.02 0.03 0.03 0.03 0.02 0.01 0.01 0.00 0.00 0.00 0.00 0.00 0.00 0.00 0.00 0.00 0.00 0.00 0.00 0.00 0.00 0.01 0.02 0.02 0.02 0.02 0.01 0.01 0.00 0.00 0.00 0.01 0.01 0.01 0.02 0.03 0.03 0.04 0.05
0.00 0.01 0.01 0.02 0.02 0.03 0.03 0.03 0.02 0.01 0.01 0.00 0.00 0.00 0.00 0.00 0.00 0.00 0.00 0.00 0.00 0.00 0.00 0.00 0.01 0.01 0.01 0.02 0.02 0.01 0.01 0.01 0.01 0.00 0.00 0.00 0.00 0.01 0.01 0.02 0.03 0.03 0.04
0.00 0.00 0.01 0.02 0.02 0.03 0.03 0.03 0.02 0.01 0.01 0.00 0.00 0.00 0.00 0.00 0.00 0.00 0.00 0.00 0.00 0.00 0.00 0.00 0.01 0.01 0.02 0.03 0.03 0.02 0.02 0.01 0.01 0.01 0.00 0.00 0.00 0.00 0.00 0.01 0.01 0.02 0.03
0.00 0.01 0.01 0.02 0.03 0.03 0.03 0.03 0.03 0.01 0.01 0.00 0.00 0.00 0.00 0.00 0.00 0.00 0.00 0.00 0.00 0.00 0.00 0.00 0.00 0.01 0.01 0.02 0.02 0.03 0.02 0.02 0.01 0.01 0.01 0.00 0.00 0.00 0.00 0.00 0.01 0.01 0.02
0.01 0.01 0.01 0.02 0.03 0.03 0.03 0.03 0.03 0.01 0.01 0.00 0.00 0.00 0.00 0.00 0.00 0.00 0.00 0.00 0.00 0.00 0.00 0.00 0.00 0.01 0.01 0.01 0.02 0.02 0.02 0.02 0.02 0.01 0.01 0.00 0.00 0.00 0.00 0.00 0.00 0.01 0.01
0.01 0.01 0.02 0.02 0.03 0.03 0.03 0.03 0.03 0.01 0.01 0.00 0.00 0.00 0.00 0.00 0.00 0.00 0.00 0.00 0.00 0.00 0.00 0.00 0.00 0.00 0.01 0.01 0.02 0.02 0.02 0.02 0.01 0.01 0.00 0.00 0.00 0.00 0.00 0.00 0.00 0.00 0.01
0.01 0.01 0.02 0.03 0.03 0.03 0.03 0.03 0.02 0.01 0.01 0.00 0.00 0.00 0.00 0.00 0.00 0.00 0.00 0.00 0.00 0.00 0.00 0.00 0.00 0.00 0.01 0.01 0.02 0.01 0.01 0.01 0.01 0.01 0.00 0.00 0.00 0.00 0.00 0.00 0.00 0.00 0.00
MSLP
1020.87 1021.61 1022.35 1023.04 1023.63 1024.10 1024.45 1024.69 1024.84 1024.93 1024.99 1025.01 1025.00 1024.92 1024.77 1024.53 1024.18 1023.73 1023.22 1022.67 1022.13 1021.63 1021.18 1020.79 1020.44 1020.08 1019.69 1019.22 1018.64 1017.95 1017.17 1016.32 1015.44 1014.57 1013.73 1012.96 1012.23 1011.55 1010.88 1010.21 1009.53 1008.84 1008.14
1020.02 1020.76 1021.50 1022.20 1022.82 1023.32 1023.70 1023.98 1024.17 1024.29 1024.36 1024.38 1024.35 1024.24 1024.05 1023.75 1023.35 1022.86 1022.29 1021.70 1021.11 1020.56 1020.06 1019.63 1019.24 1018.86 1018.45 1017.98 1017.43 1016.79 1016.07 1015.30 1014.50 1013.72 1012.97 1012.27 1011.61 1010.98 1010.35 1009.70 1009.03 1008.33 1007.61
1019.17 1019.93 1020.69 1021.40 1022.02 1022.54 1022.95 1023.25 1023.46 1023.60 1023.67 1023.68 1023.62 1023.49 1023.25 1022.92 1022.47 1021.94 1021.34 1020.71 1020.09 1019.51 1018.98 1018.51 1018.09 1017.68 1017.26 1016.79 1016.25 1015.65 1014.98 1014.27 1013.55 1012.85 1012.19 1011.56 1010.97 1010.39 1009.80 1009.17 1008.50 1007.79 1007.05
1018.32 1019.11 1019.88 1020.61 1021.25 1021.78 1022.20 1022.51 1022.73 1022.87 1022.93 1022.93 1022.85 1022.68 1022.41 1022.03 1021.56 1021.00 1020.38 1019.73 1019.10 1018.50 1017.96 1017.47 1017.03 1016.60 1016.16 1015.69 1015.15 1014.57 1013.93 1013.27 1012.61 1011.98 1011.38 1010.82 1010.29 1009.76 1009.21 1008.61 1007.95 1007.23 1006.46
1017.46 1018.29 1019.08 1019.82 1020.47 1021.01 1021.44 1021.77 1021.99 1022.13 1022.19 1022.17 1022.06 1021.86 1021.56 1021.15 1020.65 1020.07 1019.45 1018.80 1018.17 1017.58 1017.04 1016.54 1016.09 1015.65 1015.19 1014.70 1014.17 1013.58 1012.96 1012.33 1011.70 1011.11 1010.56 1010.05 1009.57 1009.09 1008.58 1008.01 1007.37 1006.65 1005.87
1016.58 1017.44 1018.27 1019.02 1019.69 1020.24 1020.69 1021.03 1021.27 1021.41 1021.47 1021.44 1021.31 1021.08 1020.75 1020.31 1019.79 1019.20 1018.57 1017.93 1017.31 1016.73 1016.21 1015.72 1015.27 1014.82 1014.35 1013.85 1013.30 1012.70 1012.07 1011.44 1010.82 1010.24 1009.72 1009.25 1008.81 1008.37 1007.91 1007.38 1006.78 1006.08 1005.30
1015.67 1016.56 1017.41 1018.19 1018.87 1019.45 1019.92 1020.29 1020.55 1020.72 1020.79 1020.76 1020.62 1020.37 1020.01 1019.55 1019.01 1018.41 1017.78 1017.15 1016.55 1015.99 1015.48 1015.01 1014.56 1014.11 1013.63 1013.11 1012.53 1011.91 1011.26 1010.61 1009.98 1009.40 1008.88 1008.43 1008.02 1007.62 1007.21 1006.73 1006.17 1005.52 1004.77
1014.71 1015.62 1016.49 1017.28 1017.99 1018.60 1019.11 1019.51 1019.82 1020.03 1020.13 1020.11 1019.98 1019.72 1019.35 1018.88 1018.32 1017.71 1017.08 1016.46 1015.87 1015.33 1014.84 1014.38 1013.94 1013.49 1013.00 1012.46 1011.86 1011.21 1010.52 1009.84 1009.19 1008.59 1008.07 1007.62 1007.23 1006.86 1006.49 1006.08 1005.58 1004.97 1004.27
1013.70 1014.61 1015.48 1016.28 1017.01 1017.66 1018.21 1018.68 1019.04 1019.30 1019.45 1019.47 1019.35 1019.11 1018.74 1018.26 1017.70 1017.09 1016.46 1015.85 1015.28 1014.75 1014.28 1013.84 1013.40 1012.95 1012.45 1011.90 1011.27 1010.59 1009.87 1009.16 1008.47 1007.85 1007.30 1006.85 1006.46 1006.12 1005.78 1005.42 1004.98 1004.44 1003.80
1012.63 1013.52 1014.37 1015.18 1015.93 1016.61 1017.22 1017.74 1018.17 1018.49 1018.70 1018.77 1018.69 1018.47 1018.12 1017.66 1017.11 1016.51 1015.90 1015.31 1014.75 1014.25 1013.79 1013.36 1012.94 1012.49 1011.99 1011.41 1010.77 1010.07 1009.32 1008.58 1007.86 1007.20 1006.63 1006.15 1005.76 1005.42 1005.10 1004.77 1004.38 1003.90 1003.32
1011.51 1012.35 1013.18 1013.98 1014.74 1015.46 1016.11 1016.69 1017.18 1017.57 1017.84 1017.96 1017.94 1017.77 1017.46 1017.03 1016.52 1015.96 1015.38 1014.82 1014.30 1013.82 1013.38 1012.97 1012.56 1012.11 1011.61 1011.03 1010.38 1009.66 1008.90 1008.13 1007.38 1006.70 1006.09 1005.58 1005.15 1004.79 1004.47 1004.15 1003.78 1003.34 1002.81
1010.34 1011.13 1011.93 1012.72 1013.49 1014.22 1014.91 1015.53 1016.08 1016.53 1016.85 1017.04 1017.08 1016.97 1016.73 1016.36 1015.92 1015.42 1014.90 1014.39 1013.91 1013.47 1013.06 1012.67 1012.27 1011.83 1011.33 1010.76 1010.11 1009.39 1008.62 1007.84 1007.08 1006.36 1005.72 1005.16 1004.68 1004.28 1003.91 1003.56 1003.18 1002.74 1002.24
1009.15 1009.91 1010.68 1011.45 1012.22 1012.96 1013.67 1014.33 1014.91 1015.41 1015.78 1016.03 1016.13 1016.10 1015.93 1015.66 1015.30 1014.89 1014.46 1014.02 1013.61 1013.22 1012.84 1012.47 1012.08 1011.65 1011.16 1010.60 1009.96 1009.25 1008.50 1007.72 1006.95 1006.21 1005.53 1004.91 1004.37 1003.89 1003.44 1003.02 1002.58 1002.12 1001.60
1007.99 1008.71 1009.47 1010.23 1011.00 1011.75 1012.47 1013.14 1013.75 1014.26 1014.68 1014.98 1015.15 1015.19 1015.12 1014.95 1014.71 1014.41 1014.08 1013.73 1013.40 1013.06 1012.72 1012.38 1012.00 1011.58 1011.10 1010.55 1009.93 1009.25 1008.52 1007.76 1006.99 1006.24 1005.53 1004.85 1004.23 1003.65 1003.10 1002.56 1002.03 1001.48 1000.91
1006.88 1007.59 1008.35 1009.12 1009.89 1010.65 1011.37 1012.04 1012.65 1013.18 1013.62 1013.95 1014.18 1014.31 1014.34 1014.29 1014.17 1013.99 1013.78 1013.53 1013.27 1013.00 1012.70 1012.37 1012.01 1011.59 1011.12 1010.59 1010.00 1009.35 1008.66 1007.93 1007.18 1006.44 1005.69 1004.97 1004.26 1003.57 1002.89 1002.22 1001.55 1000.89 1000.22
1005.84 1006.58 1007.35 1008.14 1008.92 1009.68 1010.40 1011.07 1011.67 1012.20 1012.65 1013.02 1013.30 1013.51 1013.64 1013.70 1013.70 1013.66 1013.56 1013.42 1013.23 1013.01 1012.75 1012.43 1012.07 1011.66 1011.20 1010.68 1010.11 1009.51 1008.86 1008.18 1007.48 1006.75 1006.00 1005.23 1004.45 1003.65 1002.84 1002.02 1001.21 1000.40 999.61
1004.89 1005.66 1006.47 1007.29 1008.09 1008.86 1009.58 1010.23 1010.82 1011.34 1011.80 1012.19 1012.52 1012.80 1013.02 1013.20 1013.32 1013.39 1013.41 1013.36 1013.25 1013.07 1012.82 1012.52 1012.15 1011.73 1011.27 1010.77 1010.24 1009.68 1009.09 1008.47 1007.83 1007.14 1006.40 1005.61 1004.77 1003.88 1002.95 1001.99 1001.03 1000.07 999.14
1004.02 1004.83 1005.67 1006.53 1007.36 1008.14 1008.85 1009.50 1010.07 1010.58 1011.04 1011.45 1011.82 1012.17 1012.48 1012.76 1012.99 1013.17 1013.29 1013.32 1013.27 1013.12 1012.89 1012.58 1012.21 1011.78 1011.31 1010.82 1010.32 1009.82 1009.29 1008.75 1008.18 1007.55 1006.85 1006.07 1005.20 1004.24 1003.22 1002.14 1001.04 999.95 998.89
1003.22 1004.05 1004.93 1005.81 1006.66 1007.45 1008.16 1008.80 1009.36 1009.86 1010.32 1010.75 1011.17 1011.57 1011.96 1012.33 1012.66 1012.94 1013.14 1013.25 1013.25 1013.13 1012.91 1012.59 1012.20 1011.76 1011.29 1010.82 1010.35 1009.90 1009.45 1008.99 1008.49 1007.94 1007.29 1006.55 1005.68 1004.70 1003.62 1002.46 1001.26 1000.06 998.90
1002.46 1003.30 1004.20 1005.09 1005.94 1006.73 1007.44 1008.07 1008.62 1009.12 1009.59 1010.04 1010.49 1010.95 1011.42 1011.87 1012.29 1012.66 1012.94 1013.10 1013.15 1013.06 1012.84 1012.52 1012.12 1011.67 1011.21 1010.75 1010.32 1009.91 1009.53 1009.15 1008.74 1008.27 1007.71 1007.01 1006.18 1005.21 1004.12 1002.93 1001.67 1000.40 999.17
1001.74 1002.57 1003.45 1004.33 1005.17 1005.95 1006.65 1007.26 1007.81 1008.31 1008.79 1009.27 1009.76 1010.28 1010.81 1011.34 1011.84 1012.28 1012.63 1012.86 1012.94 1012.88 1012.68 1012.37 1011.97 1011.52 1011.06 1010.62 1010.22 1009.87 1009.55 1009.25 1008.92 1008.53 1008.05 1007.43 1006.66 1005.74 1004.67 1003.49 1002.23 1000.95 999.69
1001.05 1001.84 1002.69 1003.53 1004.35 1005.10 1005.78 1006.38 1006.92 1007.43 1007.92 1008.43 1008.97 1009.53 1010.13 1010.73 1011.30 1011.81 1012.22 1012.51 1012.63 1012.61 1012.43 1012.14 1011.75 1011.31 1010.87 1010.45 1010.08 1009.77 1009.51 1009.27 1009.02 1008.71 1008.31 1007.78 1007.09 1006.24 1005.24 1004.11 1002.90 1001.65 1000.42
1000.40 1001.13 1001.92 1002.72 1003.50 1004.22 1004.87 1005.45 1005.99 1006.50 1007.02 1007.55 1008.13 1008.74 1009.39 1010.05 1010.69 1011.26 1011.73 1012.07 1012.24 1012.26 1012.12 1011.85 1011.49 1011.08 1010.66 1010.26 1009.92 1009.64 1009.42 1009.23 1009.04 1008.80 1008.48 1008.03 1007.44 1006.69 1005.78 1004.75 1003.63 1002.46 1001.30
999.80 1000.47 1001.19 1001.94 1002.66 1003.34 1003.97 1004.54 1005.07 1005.59 1006.12 1006.69 1007.30 1007.95 1008.65 1009.36 1010.04 1010.67 1011.19 1011.58 1011.81 1011.87 1011.77 1011.54 1011.22 1010.83 1010.43 1010.06 1009.74 1009.49 1009.29 1009.14 1008.99 1008.81 1008.56 1008.20 1007.70 1007.06 1006.28 1005.38 1004.38 1003.34 1002.28
999.24 999.85 1000.52 1001.22 1001.90 1002.54 1003.14 1003.70 1004.24 1004.76 1005.31 1005.90 1006.53 1007.22 1007.95 1008.69 1009.42 1010.08 1010.65 1011.08 1011.36 1011.46 1011.41 1011.23 1010.94 1010.59 1010.22 1009.87 1009.57 1009.33 1009.15 1009.01 1008.89 1008.76 1008.57 1008.29 1007.90 1007.38 1006.73 1005.98 1005.14 1004.24 1003.32
998.71 999.28 999.92 1000.57 1001.22 1001.84 1002.43 1002.98 1003.52 1004.05 1004.61 1005.22 1005.87 1006.58 1007.33 1008.10 1008.85 1009.54 1010.13 1010.60 1010.91 1011.07 1011.06 1010.92 1010.67 1010.36 1010.02 1009.69 1009.39 1009.16 1008.99 1008.86 1008.76 1008.66 1008.53 1008.33 1008.04 1007.64 1007.14 1006.55 1005.87 1005.14 1004.38
Thickness
5533 5519 5505 5489 5474 5458 5441 5425 5409 5392 5375 5358 5341 5325 5308 5291 5275 5259 5245 5232 5219 5208 5197 5188 5180 5172 5164 5156 5149 5141 5135 5130 5133 5141 5141 5144 5146 5151 5159 5170 5186 5206 5228
5532 5516 5501 5486 5470 5454 5438 5422 5405 5389 5372 5356 5339 5323 5307 5291 5275 5260 5246 5235 5222 5212 5203 5194 5186 5179 5171 5164 5156 5149 5143 5138 5136 5141 5146 5146 5148 5152 5160 5170 5186 5205 5224
5528 5513 5498 5482 5467 5451 5436 5419 5403 5386 5370 5353 5337 5321 5306 5291 5276 5262 5249 5237 5227 5217 5208 5200 5192 5184 5177 5170 5163 5156 5151 5148 5145 5145 5149 5150 5152 5155 5161 5171 5185 5202 5222
5525 5511 5496 5481 5465 5449 5433 5417 5400 5384 5368 5352 5336 5320 5306 5292 5278 5264 5252 5241 5232 5223 5215 5205 5197 5189 5183 5176 5170 5164 5159 5155 5152 5151 5152 5154 5156 5158 5162 5171 5186 5203 5222
5523 5509 5495 5480 5462 5446 5430 5414 5398 5382 5367 5351 5335 5320 5306 5292 5279 5267 5258 5249 5240 5230 5218 5208 5199 5194 5190 5185 5180 5174 5168 5163 5159 5157 5157 5159 5160 5160 5163 5171 5185 5202 5222
5522 5507 5492 5475 5458 5442 5427 5411 5396 5381 5365 5350 5335 5320 5306 5294 5283 5275 5266 5255 5243 5231 5220 5211 5202 5197 5193 5190 5186 5181 5176 5169 5165 5162 5162 5161 5162 5163 5167 5176 5187 5202 5223
5520 5505 5488 5472 5455 5440 5425 5409 5394 5379 5364 5349 5334 5320 5308 5295 5286 5278 5269 5258 5244 5232 5222 5213 5207 5201 5197 5190 5188 5185 5179 5174 5172 5168 5167 5166 5166 5168 5172 5181 5192 5206 5224
5517 5502 5486 5469 5453 5437 5422 5407 5393 5378 5363 5349 5336 5322 5309 5298 5289 5280 5271 5259 5245 5234 5224 5216 5209 5203 5200 5199 5197 5191 5183 5178 5175 5172 5171 5172 5173 5177 5181 5189 5199 5212 5227
5514 5500 5484 5467 5451 5435 5420 5407 5392 5377 5364 5350 5337 5324 5310 5299 5289 5281 5274 5260 5248 5238 5228 5220 5213 5208 5207 5207 5202 5195 5190 5186 5182 5179 5179 5179 5182 5185 5190 5196 5205 5217 5233
5515 5501 5483 5466 5450 5436 5421 5406 5392 5378 5365 5351 5339 5325 5312 5299 5290 5282 5274 5263 5253 5243 5233 5224 5217 5214 5213 5210 5204 5197 5194 5192 5188 5183 5182 5183 5184 5187 5194 5199 5206 5217 5232
5512 5496 5480 5464 5449 5435 5419 5405 5391 5378 5365 5351 5338 5326 5313 5301 5291 5282 5274 5264 5255 5245 5237 5228 5221 5218 5214 5210 5206 5200 5199 5198 5191 5188 5187 5188 5190 5193 5198 5204 5211 5221 5234
5504 5491 5477 5462 5447 5433 5417 5403 5389 5376 5363 5350 5337 5324 5312 5301 5291 5281 5275 5267 5258 5247 5239 5231 5225 5221 5215 5210 5206 5205 5203 5199 5194 5193 5192 5193 5195 5199 5205 5212 5221 5230 5242
5497 5484 5470 5456 5442 5429 5414 5401 5388 5375 5363 5351 5338 5326 5313 5302 5291 5283 5274 5266 5258 5250 5241 5234 5228 5221 5215 5209 5207 5206 5202 5198 5198 5196 5196 5198 5200 5205 5212 5221 5230 5240 5251
5490 5477 5464 5450 5438 5424 5412 5399 5387 5376 5363 5352 5340 5327 5314 5302 5291 5282 5272 5265 5259 5250 5241 5233 5227 5219 5214 5210 5207 5204 5202 5201 5201 5199 5200 5202 5206 5211 5218 5227 5237 5248 5259
5484 5472 5459 5447 5435 5421 5410 5399 5388 5378 5366 5353 5342 5328 5315 5303 5294 5288 5280 5270 5261 5253 5244 5233 5226 5220 5215 5211 5208 5207 5205 5204 5203 5203 5205 5207 5211 5216 5223 5231 5241 5252 5263
5478 5466 5454 5443 5430 5418 5406 5394 5386 5376 5367 5357 5346 5331 5319 5309 5300 5292 5282 5272 5263 5255 5243 5233 5225 5220 5215 5212 5209 5208 5207 5206 5206 5206 5208 5210 5214 5219 5227 5236 5245 5255 5266
5477 5465 5453 5441 5428 5416 5404 5394 5382 5373 5366 5357 5347 5336 5324 5312 5302 5292 5282 5272 5262 5253 5241 5233 5225 5220 5216 5213 5210 5208 5207 5208 5207 5208 5210 5213 5218 5223 5231 5239 5248 5259 5271
5471 5463 5452 5440 5428 5416 5405 5395 5384 5372 5361 5352 5344 5335 5324 5312 5301 5291 5281 5269 5258 5250 5241 5234 5227 5222 5218 5215 5212 5210 5209 5209 5210 5211 5213 5217 5221 5227 5235 5242 5251 5262 5274
5465 5456 5447 5435 5424 5414 5402 5392 5381 5371 5361 5350 5339 5330 5322 5311 5300 5289 5279 5266 5257 5249 5243 5236 5230 5225 5220 5217 5214 5211 5210 5210 5211 5213 5216 5220 5224 5230 5238 5246 5254 5266 5278
5460 5452 5442 5429 5418 5408 5398 5388 5379 5369 5359 5349 5340 5329 5317 5306 5295 5286 5276 5266 5258 5250 5244 5238 5233 5228 5223 5219 5216 5214 5212 5213 5213 5215 5219 5223 5227 5233 5241 5249 5258 5269 5281
5451 5444 5437 5425 5413 5404 5396 5387 5378 5368 5359 5350 5341 5331 5319 5306 5296 5286 5276 5267 5259 5252 5246 5240 5235 5230 5226 5222 5218 5216 5215 5214 5215 5217 5220 5225 5230 5237 5244 5253 5262 5272 5285
5441 5433 5427 5418 5408 5399 5392 5385 5376 5367 5358 5349 5339 5331 5323 5308 5297 5287 5278 5269 5261 5254 5248 5242 5237 5233 5228 5224 5221 5219 5217 5216 5217 5218 5221 5226 5232 5239 5247 5255 5265 5275 5287
5428 5421 5416 5409 5400 5394 5388 5380 5372 5364 5357 5349 5339 5330 5321 5309 5298 5288 5280 5271 5263 5256 5250 5245 5240 5236 5232 5228 5224 5221 5219 5218 5217 5218 5221 5226 5232 5239 5247 5255 5265 5275 5287
5415 5410 5405 5400 5393 5387 5382 5376 5369 5362 5355 5347 5339 5330 5320 5309 5299 5290 5281 5273 5265 5258 5252 5247 5242 5238 5234 5231 5227 5224 5221 5220 5220 5220 5222 5225 5231 5238 5246 5255 5265 5274 5284
5401 5397 5394 5390 5386 5381 5377 5371 5366 5359 5353 5347 5339 5330 5320 5310 5300 5291 5282 5273 5266 5260 5254 5249 5245 5241 5237 5233 5230 5226 5224 5222 5221 5221 5222 5225 5230 5237 5245 5253 5263 5272 5281
5388 5384 5382 5380 5377 5374 5371 5367 5362 5357 5351 5346 5339 5330 5320 5310 5300 5291 5282 5273 5266 5260 5255 5251 5246 5242 5239 5235 5232 5229 5226 5224 5222 5221 5221 5224 5228 5235 5242 5250 5259 5270 5278